This demonstration page uses our WeatherBlox Daily Observations layout. Learn more.

Left ArrowRight Arrow

39.51506, -84.39828

Hourly Observations for February 5, 2020

Temp ( °F °C ) Dew Point ( °F °C ) Humidity (%) Winds ( mph kmh ) Pressure ( in mb ) Visibility ( mi km ) Precip ( " mm )
12:15 am 00:15 Cloudy 33 0.7 30 -1 89 89 NNE 10 17 30.04 1017 10 16.0934 0 0
12:35 am 00:35 Cloudy 34 1 29 -1.4 84 84 NNE 13 20 30.04 1017 10 16.0934 0 0
12:55 am 00:55 Cloudy 34 1.1 30 -1.3 84 84 NE 14 22 30.04 1017 10 16.0934 0 0
1:15 am 01:15 Cloudy 34 1.1 29 -1.4 84 84 NE 9 15 30.05 1018 10 16.0934 0 0
1:35 am 01:35 Cloudy 34 1.1 29 -1.4 84 84 NNE 10 17 30.04 1017 10 16.0934 0 0
1:55 am 01:55 Cloudy 34 1.1 29 -1.9 81 81 NNE 10 17 30.06 1018 10 16.0934 0 0
2:15 am 02:15 Cloudy 34 1 28 -2 81 81 NNE 10 17 30.07 1018 10 16.0934 0 0
2:35 am 02:35 Cloudy 34 1 27 -2.6 77 77 NNE 15 24 30.07 1018 10 16.0934 0 0
2:55 am 02:55 Cloudy 34 0.9 27 -2.8 77 77 NNE 16 26 30.08 1019 10 16.0934 0 0
3:15 am 03:15 Cloudy 33 0.8 26 -3.6 73 73 NNE 17 28 30.07 1018 10 16.0934 0 0
3:35 am 03:35 Cloudy 33 0.6 26 -3.6 74 74 NNE 13 20 30.09 1019 10 16.0934 0 0
3:55 am 03:55 Cloudy 33 0.7 24 -4.3 70 70 NNE 15 24 30.08 1019 10 16.0934 0 0
4:15 am 04:15 Cloudy 33 0.7 25 -4 71 71 NNE 13 20 30.1 1019 10 16.0934 0 0
4:35 am 04:35 Cloudy 33 0.7 26 -3.6 73 73 NNE 14 22 30.09 1019 10 16.0934 0 0
4:55 am 04:55 Cloudy 33 0.8 26 -3.4 74 74 NNE 12 19 30.1 1019 10 16.0934 0 0
5:15 am 05:15 Cloudy 33 0.8 26 -3.2 75 75 NNE 12 19 30.1 1019 10 16.0934 0 0
5:35 am 05:35 Cloudy 33 0.7 26 -3.1 76 76 NE 16 26 30.09 1019 10 16.0934 0 0
5:55 am 05:55 Cloudy 33 0.8 26 -3.2 75 75 NE 13 20 30.11 1020 10 16.0934 0 0
6:15 am 06:15 Cloudy 33 0.8 26 -3.1 75 75 NE 13 20 30.1 1019 10 16.0934 0 0
6:35 am 06:35 Cloudy 33 0.8 26 -3.3 74 74 NE 14 22 30.11 1020 10 16.0934 0 0
6:55 am 06:55 Cloudy 33 0.8 26 -3.1 75 75 NE 16 26 30.11 1020 10 16.0934 0 0
7:15 am 07:15 Cloudy 33 0.8 26 -3.5 73 73 NE 14 22 30.13 1020 10 16.0934 0 0
7:35 am 07:35 Cloudy 33 0.8 26 -3.2 75 75 ENE 12 19 30.12 1020 10 16.0934 0 0
7:55 am 07:55 Cloudy 33 0.7 26 -3.2 75 75 ENE 12 19 30.12 1020 10 16.0934 0 0
8:15 am 08:15 Cloudy 33 0.8 27 -3 76 76 ENE 16 26 30.11 1020 10 16.0934 0 0
8:35 am 08:35 Cloudy 34 0.9 27 -3 75 75 NE 16 26 30.11 1020 10 16.0934 0 0
8:55 am 08:55 Cloudy 34 0.9 26 -3.2 74 74 NE 17 28 30.1 1019 10 16.0934 0 0
9:15 am 09:15 Cloudy 34 1 27 -3 75 75 NE 13 20 30.09 1019 10 16.0934 0 0
9:35 am 09:35 Cloudy 34 1.2 27 -2.9 74 74 ENE 16 26 30.1 1019 10 16.0934 0 0
9:55 am 09:55 Cloudy 35 1.4 27 -2.9 73 73 E 10 17 30.11 1020 10 16.0934 0 0
10:15 am 10:15 Cloudy 35 1.5 27 -2.9 73 73 ENE 10 17 30.11 1020 10 16.0934 0 0
10:35 am 10:35 Cloudy 35 1.7 26 -3.2 70 70 ENE 13 20 30.11 1020 10 16.0934 0 0
10:55 am 10:55 Cloudy 35 1.9 27 -3 70 70 ENE 13 20 30.09 1019 10 16.0934 0 0
11:15 am 11:15 Cloudy 36 2.2 26 -3.3 67 67 ENE 16 26 30.07 1018 10 16.0934 0 0
11:35 am 11:35 Cloudy 36 2.4 26 -3.4 66 66 E 15 24 30.05 1018 10 16.0934 0 0
11:55 am 11:55 Cloudy 36 2.4 26 -3.5 65 65 ENE 14 22 30.05 1018 10 16.0934 0 0
12:15 pm 12:15 Cloudy 37 2.5 26 -3.6 64 64 ENE 16 26 30.04 1017 10 16.0934 0 0
12:35 pm 12:35 Cloudy 37 2.9 26 -3.4 64 64 ENE 13 20 30.03 1017 10 16.0934 0 0
12:55 pm 12:55 Cloudy 37 2.5 26 -3.5 65 65 NE 14 22 30.03 1017 10 16.0934 0 0
1:15 pm 13:15 Cloudy 37 2.6 26 -3.4 65 65 ENE 14 22 30 1016 10 16.0934 0 0
1:35 pm 13:35 Cloudy 37 2.7 26 -3.4 65 65 E 14 22 29.98 1015 10 16.0934 0 0
1:55 pm 13:55 Cloudy 37 2.7 26 -3.2 65 65 ENE 13 20 29.96 1014 10 16.0934 0 0
2:15 pm 14:15 Cloudy 37 2.9 26 -3.3 64 64 ENE 13 20 29.95 1014 10 16.0934 0 0
2:35 pm 14:35 Cloudy 37 2.7 27 -3 66 66 ENE 14 22 29.94 1014 10 16.0934 0 0
2:55 pm 14:55 Cloudy 37 2.5 27 -3 67 67 ENE 15 24 29.92 1013 10 16.0934 0 0
3:15 pm 15:15 Cloudy 37 2.5 27 -3 67 67 ENE 12 19 29.91 1013 10 16.0934 0 0
3:35 pm 15:35 Cloudy 37 2.5 27 -3 67 67 ENE 15 24 29.9 1012 10 16.0934 0 0
3:55 pm 15:55 Cloudy 36 2.4 26 -3.1 67 67 ENE 13 20 29.89 1012 10 16.0934 0 0
4:15 pm 16:15 Cloudy 36 2.4 26 -3.2 67 67 ENE 17 28 29.88 1012 10 16.0934 0 0
4:35 pm 16:35 Cloudy with Drizzle 35 1.6 29 -1.8 78 78 NE 16 26 29.85 1011 10 16.0934 0 0
4:55 pm 16:55 Cloudy with Rain 35 1.7 28 -2.3 75 75 NE 18 30 29.83 1010 10 16.0934 0 0
5:15 pm 17:15 Cloudy with Rain 35 1.5 29 -1.6 80 80 ENE 17 28 29.82 1010 10 16.0934 0 0
5:35 pm 17:35 Cloudy with Rain 34 1.1 31 -0.7 88 88 ENE 18 30 29.8 1009 5 8.0467 0 0
5:55 pm 17:55 Cloudy with Rain 34 1 31 -0.5 90 90 ENE 16 26 29.79 1009 4 6.43736 0 0
6:15 pm 18:15 Cloudy with Light Snow 33 0.8 31 -0.4 92 92 ENE 9 15 29.8 1009 2 3.21868 0 0
6:35 pm 18:35 Cloudy with Light Snow 33 0.7 32 -0.1 94 94 E 9 15 29.79 1009 3 4.82802 0 0
6:55 pm 18:55 Cloudy with Rain 33 0.7 32 0.1 96 96 NE 8 13 29.8 1009 4 6.43736 0 0
7:15 pm 19:15 Cloudy with Light Rain 33 0.7 32 0.1 96 96 NNE 9 15 29.79 1009 5 8.0467 0 0
7:35 pm 19:35 Cloudy with Light Rain 33 0.6 32 0 96 96 NNE 8 13 29.78 1009 5 8.0467 0 0
7:55 pm 19:55 Cloudy with Light Rain 33 0.6 32 0 96 96 N 13 20 29.8 1009 5 8.0467 0 0
8:15 pm 20:15 Cloudy with Light Rain 33 0.5 32 -0.2 95 95 N 12 19 29.81 1010 7 11.26538 0 0
8:35 pm 20:35 Cloudy with Light Rain 33 0.3 31 -0.4 95 95 NNE 13 20 29.79 1009 3.5 5.63269 0 0
8:55 pm 20:55 Cloudy with Drizzle 33 0.3 31 -0.3 96 96 NE 10 17 29.79 1009 5 8.0467 0 0
9:15 pm 21:15 Cloudy with Drizzle 32 0.2 31 -0.4 96 96 NE 12 19 29.77 1008 5 8.0467 0 0
9:35 pm 21:35 Cloudy with Mist and Fog 32 0.2 31 -0.3 96 96 NE 12 19 29.75 1008 5 8.0467 0 0
9:55 pm 21:55 Cloudy with Mist and Fog 32 0.2 32 -0.2 97 97 NE 10 17 29.72 1007 7 11.26538 0 0
10:15 pm 22:15 Cloudy 33 0.3 31 -0.3 96 96 NE 9 15 29.72 1007 10 16.0934 0 0
10:35 pm 22:35 Cloudy 33 0.5 31 -0.3 94 94 NE 8 13 29.71 1006 10 16.0934 0 0
10:55 pm 22:55 Cloudy 33 0.5 31 -0.3 94 94 NNE 7 11 29.72 1007 10 16.0934 0 0
11:15 pm 23:15 Cloudy 33 0.4 31 -0.4 94 94 NNE 8 13 29.71 1006 7 11.26538 0 0
11:35 pm 23:35 Cloudy with Drizzle 33 0.3 31 -0.3 96 96 NNE 8 13 29.69 1006 4 6.43736 0 0
11:55 pm 23:55 Cloudy with Mist and Fog 32 0.2 32 -0.2 97 97 NE 7 11 29.67 1005 5 8.0467 0 0

Powered by AerisWeather